Location: Ermatingen
(47.6706°N, 9.0857°E)
Time: 03:12:55
(UTC+00:00)

Cosmos 2034 Rocket - Pass Details

Date: 18 September 2020
Orbit: 957 x 1002 km, 82.9° (Epoch: 23 October)

Event Time Altitude Azimuth Distance (km) Brightness Sun altitude
Rises 18:53:49 0° 174° (S) 3,712 6.8 -14.8°
Reaches altitude 10° 18:56:22 10° 171° (S) 2,766 6.1 -15.2°
Maximum altitude 19:02:36 61° 93° (E) 1,131 4.0 -16.2°
Drops below altitude 10° 19:08:51 10° 15° (NNE) 2,770 6.5 -17.2°
Sets 19:11:24 0° 12° (NNE) 3,718 7.2 -17.6°
